Location: Brabourne
(51.1333°N, 1.0000°E)
Time: 14:10:48
(UTC+00:00)

USA 305 - Visible Passes

Search period start: 22 October 2021 00:00
Search period end: 01 November 2021 00:00
Orbit: 547 x 588 km, 54.0° (Epoch: 03 October)

Date Brightness Start Highest point End Pass type
(mag) Time Alt. Az. Time Alt. Az. Time Alt. Az.
22 Oct 4.3 05:41:05 10° SSW 05:44:55 37° SE 05:48:44 10° ENE visible
23 Oct 5.7 04:04:31 10° SSE 04:06:00 12° SE 04:07:29 10° ESE visible
23 Oct 3.7 05:41:05 10° SW 05:45:05 49° SSE 05:49:05 10° ENE visible
24 Oct 5.3 04:03:54 12° SSE 04:06:01 17° SE 04:08:40 10° E visible
24 Oct 3.2 05:41:10 10° SW 05:45:17 64° SSE 05:49:23 10° ENE visible
25 Oct 4.8 04:04:46 19° SSE 04:06:04 23° SE 04:09:20 10° E visible
25 Oct 2.9 05:41:21 10° WSW 05:45:30 81° SSE 05:49:38 10° ENE visible
26 Oct 4.2 04:05:29 29° SSE 04:06:08 30° SE 04:09:48 10° ENE visible
26 Oct 2.8 05:41:35 10° WSW 05:45:44 84° NNW 05:49:53 10° ENE visible
27 Oct 3.7 04:06:05 40° SSE 04:06:15 41° SE 04:10:09 10° ENE visible
27 Oct 2.8 05:42:07 12° W 05:45:59 72° NNW 05:50:08 10° ENE visible
28 Oct 3.3 04:06:35 53° SE 04:06:35 53° SE 04:10:26 10° ENE visible
28 Oct 2.9 05:42:37 13° W 05:46:16 64° N 05:50:23 10° ENE visible
29 Oct 3.2 04:07:00 62° ESE 04:07:00 62° ESE 04:10:40 10° ENE visible
29 Oct 3.0 05:43:02 14° W 05:46:32 59° N 05:50:38 10° ENE visible
30 Oct 3.2 04:07:21 63° ENE 04:07:21 63° ENE 04:10:53 10° ENE visible
30 Oct 3.1 05:43:23 14° W 05:46:48 57° N 05:50:53 10° ENE visible
31 Oct 3.3 04:07:40 58° NE 04:07:40 58° NE 04:11:05 10° ENE visible
31 Oct 3.1 05:43:41 15° WNW 05:47:04 57° N 05:51:09 10° E visible
